Location: Claflin County Park
(44.8478°N, 87.5507°W)
Time: 02:20:10
(UTC+00:00)

Cosmos 1980 Rocket - Pass Details

Date: 10 December 2025
Orbit: 830 x 847 km, 71.0° (Epoch: 17 January)

Event Time Altitude Azimuth Distance (km) Brightness Sun altitude
Rises 01:28:59 0° 233° (SW) 3,390 6.0 -34.5°
Reaches altitude 10° 01:31:40 10° 243° (WSW) 2,457 5.2 -35.0°
Enters shadow 01:36:38 33° 305° (NW) 1,394 3.6 -35.8°
